Tracking 19909 objects as of 21-Oct-2019
HD Live streaming from Space Station
objects crossing your sky now

COSMOS 1275 DEB

Track COSMOS 1275 DEB now!
10-day predictions


NORAD ID: 14441
Int'l Code: 1981-053JL
Perigee: 864.0 km
Apogee: 924.5 km
Inclination: 83.1 °
Period: 102.7 minutes
Semi major axis: 7265 km
RCS: 0.0079 m2 (small)
Launch date: June 4, 1981
Source: Commonwealth of Independent States (former USSR) (CIS)
Launch site: PLESETSK MISSILE AND SPACE COMPLEX (PKMTR)

Note: This is SATELLITE DEBRIS
aabbcc
Your satellite tracking list
Your tracking list is empty




NASA's NSSDC Master Catalog

Two Line Element Set (TLE):
1 14441U 81053JH  19293.39912778 +.00000578 +00000-0 +36668-3 0  9993
2 14441 083.1196 323.5634 0041600 283.9750 075.6797 14.01935188931447
Source of the keplerian elements: AFSPC